Time,TemperatureF,DewpointF,PressureIn,WindDirection,WindDirectionDegrees,WindSpeedMPH,WindSpeedGustMPH,Humidity,HourlyPrecipIn,Conditions,Clouds,dailyrainin,SoftwareType,DateUTC
2013-01-11 00:04:00,40.0,32.0,-100.00,East,86,6.0,12.0,75,0.00,,,-99.99,,2013-01-11 05:04:00,
2013-01-11 00:13:00,40.0,32.0,-100.00,East,93,5.0,12.0,71,0.00,,,-99.99,,2013-01-11 05:13:00,
2013-01-11 00:23:00,41.0,32.0,-100.00,East,87,6.0,12.0,71,0.00,,,-99.99,,2013-01-11 05:23:00,
2013-01-11 00:33:00,40.0,32.0,-100.00,East,94,4.0,12.0,72,0.00,,,-99.99,,2013-01-11 05:33:00,
2013-01-11 00:43:00,40.0,32.0,-100.00,ESE,103,3.0,12.0,71,0.00,,,-99.99,,2013-01-11 05:43:00,
2013-01-11 00:52:00,40.0,32.0,-100.00,ESE,112,1.0,12.0,71,0.00,,,-99.99,,2013-01-11 05:52:00,
2013-01-11 01:03:00,40.0,32.0,-100.00,ESE,111,0.0,12.0,73,-99.99,,,-99.99,,2013-01-11 06:03:00,
2013-01-11 01:12:00,38.0,34.0,-100.00,East,79,4.0,12.0,90,0.00,,,-99.99,,2013-01-11 06:12:00,
2013-01-11 01:22:00,38.0,34.0,-100.00,East,88,4.0,12.0,91,0.00,,,-99.99,,2013-01-11 06:22:00,
2013-01-11 01:32:00,38.0,36.0,-100.00,East,101,5.0,12.0,91,0.00,,,-99.99,,2013-01-11 06:32:00,
2013-01-11 01:42:00,39.0,34.0,-100.00,ESE,112,6.0,12.0,86,0.00,,,-99.99,,2013-01-11 06:42:00,
2013-01-11 01:52:00,39.0,34.0,-100.00,East,101,4.0,12.0,85,0.00,,,-99.99,,2013-01-11 06:52:00,
2013-01-11 02:02:00,40.0,36.0,-100.00,ESE,103,5.0,12.0,85,0.00,,,-99.99,,2013-01-11 07:02:00,
2013-01-11 02:12:00,40.0,36.0,-100.00,East,97,4.0,12.0,88,0.00,,,-99.99,,2013-01-11 07:12:00,
2013-01-11 02:22:00,40.0,34.0,-100.00,ESE,107,4.0,12.0,85,0.00,,,-99.99,,2013-01-11 07:22:00,
2013-01-11 02:32:00,40.0,34.0,-100.00,East,101,2.0,12.0,84,0.00,,,-99.99,,2013-01-11 07:32:00,
2013-01-11 02:42:00,41.0,36.0,-100.00,SE,128,2.0,12.0,84,0.00,,,-99.99,,2013-01-11 07:42:00,
2013-01-11 02:52:00,41.0,36.0,-100.00,SE,129,1.0,12.0,82,0.00,,,-99.99,,2013-01-11 07:52:00,
2013-01-11 03:02:00,42.0,37.0,-100.00,SE,127,2.0,12.0,84,0.00,,,-99.99,,2013-01-11 08:02:00,
2013-01-11 03:12:00,43.0,36.0,-100.00,SE,134,2.0,12.0,81,0.00,,,-99.99,,2013-01-11 08:12:00,
2013-01-11 03:22:00,44.0,37.0,-100.00,SE,125,5.0,12.0,81,0.00,,,-99.99,,2013-01-11 08:22:00,
2013-01-11 03:32:00,45.0,39.0,-100.00,SE,127,5.0,12.0,81,0.00,,,-99.99,,2013-01-11 08:32:00,
2013-01-11 03:42:00,46.0,39.0,-100.00,ESE,121,6.0,12.0,80,0.00,,,-99.99,,2013-01-11 08:42:00,
2013-01-11 03:52:00,45.0,37.0,-100.00,ESE,111,7.0,12.0,80,0.00,,,-99.99,,2013-01-11 08:52:00,
2013-01-11 04:02:00,48.0,41.0,-100.00,SE,135,7.0,12.0,80,0.00,,,-99.99,,2013-01-11 09:02:00,
2013-01-11 04:12:00,45.0,39.0,-100.00,SE,141,4.0,12.0,82,0.00,,,-99.99,,2013-01-11 09:12:00,
2013-01-11 04:23:00,47.0,41.0,-100.00,SE,132,4.0,12.0,80,0.00,,,-99.99,,2013-01-11 09:23:00,
2013-01-11 04:32:00,46.0,39.0,-100.00,SE,136,4.0,12.0,81,0.00,,,-99.99,,2013-01-11 09:32:00,
2013-01-11 04:42:00,47.0,41.0,-100.00,SSE,152,4.0,12.0,82,0.00,,,-99.99,,2013-01-11 09:42:00,
2013-01-11 04:52:00,47.0,41.0,-100.00,SE,142,6.0,12.0,82,0.00,,,-99.99,,2013-01-11 09:52:00,
2013-01-11 05:02:00,48.0,41.0,-100.00,SSE,148,6.0,12.0,82,0.00,,,-99.99,,2013-01-11 10:02:00,
2013-01-11 05:12:00,47.0,41.0,-100.00,SE,134,6.0,12.0,82,0.00,,,-99.99,,2013-01-11 10:12:00,
2013-01-11 05:22:00,47.0,41.0,-100.00,SSE,158,6.0,12.0,82,0.00,,,-99.99,,2013-01-11 10:22:00,
2013-01-11 05:32:00,47.0,41.0,-100.00,SSE,155,6.0,12.0,82,0.00,,,-99.99,,2013-01-11 10:32:00,
2013-01-11 05:42:00,48.0,41.0,-100.00,SSE,153,7.0,12.0,82,0.00,,,-99.99,,2013-01-11 10:42:00,
2013-01-11 05:52:00,48.0,41.0,-100.00,SE,145,8.0,12.0,82,0.00,,,-99.99,,2013-01-11 10:52:00,
2013-01-11 06:03:00,49.0,43.0,-100.00,SSE,163,9.0,12.0,82,0.00,,,-99.99,,2013-01-11 11:03:00,
2013-01-11 06:12:00,49.0,43.0,-100.00,SSE,162,11.0,15.0,85,7.36,,,-99.99,,2013-01-11 11:12:00,
2013-01-11 06:22:00,49.0,45.0,-100.00,SSE,159,10.0,15.0,88,9.06,,,-99.99,,2013-01-11 11:22:00,
2013-01-11 06:33:00,49.0,45.0,-100.00,South,169,11.0,15.0,89,-99.99,,,-99.99,,2013-01-11 11:33:00,
2013-01-11 06:43:00,48.0,45.0,-100.00,SSE,166,13.0,15.0,91,-99.99,,,-99.99,,2013-01-11 11:43:00,
2013-01-11 06:53:00,48.0,46.0,-100.00,SE,144,10.0,15.0,95,-99.99,,,-99.99,,2013-01-11 11:53:00,
2013-01-11 07:03:00,48.0,46.0,-100.00,SSE,163,10.0,15.0,95,-99.99,,,-99.99,,2013-01-11 12:03:00,
2013-01-11 07:12:00,48.0,46.0,-100.00,SSE,163,11.0,15.0,95,2.83,,,-99.99,,2013-01-11 12:12:00,
2013-01-11 07:22:00,50.0,48.0,-100.00,SW,217,11.0,15.0,95,-99.99,,,-99.99,,2013-01-11 12:22:00,
2013-01-11 07:33:00,49.0,48.0,-100.00,SSW,210,12.0,15.0,97,1.14,,,-99.99,,2013-01-11 12:33:00,
2013-01-11 07:43:00,50.0,46.0,-100.00,SSE,168,11.0,15.0,93,1.14,,,-99.99,,2013-01-11 12:43:00,
2013-01-11 07:52:00,51.0,48.0,-100.00,South,175,12.0,15.0,93,12.48,,,-99.99,,2013-01-11 12:52:00,
2013-01-11 08:03:00,51.0,48.0,-100.00,SSE,160,13.0,15.0,93,6.22,,,-99.99,,2013-01-11 13:03:00,
2013-01-11 08:13:00,50.0,46.0,-100.00,South,175,9.0,15.0,93,-99.99,,,-99.99,,2013-01-11 13:13:00,
2013-01-11 08:22:00,50.0,46.0,-100.00,SSE,168,10.0,15.0,94,2.83,,,-99.99,,2013-01-11 13:22:00,
2013-01-11 08:33:00,49.0,46.0,-100.00,SSE,163,10.0,15.0,95,24.96,,,-99.99,,2013-01-11 13:33:00,
2013-01-11 08:43:00,49.0,46.0,-100.00,SSE,158,9.0,15.0,94,15.31,,,-99.99,,2013-01-11 13:43:00,
2013-01-11 08:52:00,49.0,46.0,-100.00,SE,136,10.0,15.0,95,23.23,,,-99.99,,2013-01-11 13:52:00,
2013-01-11 09:03:00,49.0,46.0,-100.00,ESE,118,10.0,15.0,95,-99.99,,,-99.99,,2013-01-11 14:03:00,
2013-01-11 09:12:00,49.0,46.0,-100.00,SE,129,11.0,15.0,95,0.00,,,-99.99,,2013-01-11 14:12:00,
2013-01-11 09:23:00,49.0,48.0,-100.00,SSE,152,9.0,15.0,97,0.00,,,-99.99,,2013-01-11 14:23:00,
2013-01-11 09:33:00,51.0,48.0,-100.00,ESE,115,11.0,15.0,95,0.00,,,-99.99,,2013-01-11 14:33:00,
2013-01-11 09:43:00,51.0,48.0,-100.00,SE,136,12.0,15.0,94,0.00,,,-99.99,,2013-01-11 14:43:00,
2013-01-11 09:53:00,52.0,50.0,-100.00,SE,146,12.0,15.0,93,0.00,,,-99.99,,2013-01-11 14:53:00,
2013-01-11 10:03:00,52.0,48.0,-100.00,SE,139,13.0,15.0,93,0.00,,,-99.99,,2013-01-11 15:03:00,
2013-01-11 10:13:00,53.0,48.0,-100.00,SSE,158,12.0,15.0,91,0.00,,,-99.99,,2013-01-11 15:13:00,
2013-01-11 10:23:00,54.0,50.0,-100.00,SSE,159,12.0,15.0,90,0.00,,,-99.99,,2013-01-11 15:23:00,
2013-01-11 10:33:00,53.0,48.0,-100.00,SSE,160,14.0,15.0,90,0.00,,,-99.99,,2013-01-11 15:33:00,
2013-01-11 10:43:00,53.0,50.0,-100.00,South,170,18.0,21.0,90,0.00,,,-99.99,,2013-01-11 15:43:00,
2013-01-11 10:53:00,53.0,50.0,-100.00,South,172,17.0,21.0,91,0.00,,,-99.99,,2013-01-11 15:53:00,
2013-01-11 11:03:00,53.0,50.0,-100.00,South,172,18.0,21.0,91,0.00,,,-99.99,,2013-01-11 16:03:00,
2013-01-11 11:13:00,53.0,50.0,-100.00,South,187,16.0,16.0,91,0.00,,,-99.99,,2013-01-11 16:13:00,
2013-01-11 11:23:00,54.0,50.0,-100.00,South,186,19.0,24.0,90,0.00,,,-99.99,,2013-01-11 16:23:00,
2013-01-11 11:33:00,54.0,50.0,-100.00,South,189,19.0,24.0,91,0.00,,,-99.99,,2013-01-11 16:33:00,
2013-01-11 11:43:00,53.0,50.0,-100.00,SSW,193,17.0,24.0,91,0.00,,,-99.99,,2013-01-11 16:43:00,
2013-01-11 11:53:00,53.0,50.0,-100.00,SSW,208,19.0,24.0,89,0.00,,,-99.99,,2013-01-11 16:53:00,
2013-01-11 12:03:00,54.0,50.0,-100.00,SW,221,19.0,24.0,91,0.00,,,-99.99,,2013-01-11 17:03:00,
2013-01-11 12:12:00,54.0,50.0,-100.00,SSW,204,15.0,24.0,90,0.00,,,-99.99,,2013-01-11 17:12:00,
2013-01-11 12:22:00,55.0,50.0,-100.00,SW,225,12.0,24.0,89,0.00,,,-99.99,,2013-01-11 17:22:00,
2013-01-11 12:33:00,55.0,52.0,-100.00,SW,231,14.0,24.0,89,0.00,,,-99.99,,2013-01-11 17:33:00,
2013-01-11 12:43:00,56.0,52.0,-100.00,South,187,13.0,24.0,89,0.00,,,-99.99,,2013-01-11 17:43:00,
2013-01-11 12:53:00,57.0,52.0,-100.00,SSW,208,12.0,24.0,88,0.00,,,-99.99,,2013-01-11 17:53:00,
2013-01-11 13:04:00,57.0,52.0,-100.00,SW,224,13.0,24.0,86,0.00,,,-99.99,,2013-01-11 18:04:00,
2013-01-11 13:13:00,57.0,52.0,-100.00,SW,231,14.0,24.0,85,0.00,,,-99.99,,2013-01-11 18:13:00,
2013-01-11 13:23:00,57.0,52.0,-100.00,SW,220,14.0,24.0,85,0.00,,,-99.99,,2013-01-11 18:23:00,
2013-01-11 13:33:00,57.0,52.0,-100.00,SW,228,14.0,24.0,84,0.00,,,-99.99,,2013-01-11 18:33:00,
2013-01-11 13:43:00,58.0,52.0,-100.00,SW,232,14.0,24.0,84,0.00,,,-99.99,,2013-01-11 18:43:00,
2013-01-11 13:53:00,57.0,52.0,-100.00,SW,217,12.0,24.0,85,0.00,,,-99.99,,2013-01-11 18:53:00,
2013-01-11 14:03:00,58.0,52.0,-100.00,SW,221,11.0,24.0,84,0.00,,,-99.99,,2013-01-11 19:03:00,
2013-01-11 14:13:00,58.0,52.0,-100.00,SW,224,11.0,24.0,85,0.00,,,-99.99,,2013-01-11 19:13:00,
2013-01-11 14:23:00,62.0,54.0,-100.00,SW,231,12.0,24.0,80,0.00,,,-99.99,,2013-01-11 19:23:00,
2013-01-11 14:33:00,61.0,54.0,-100.00,SW,214,14.0,24.0,80,0.00,,,-99.99,,2013-01-11 19:33:00,
2013-01-11 14:43:00,58.0,50.0,-100.00,SW,218,14.0,24.0,78,0.00,,,-99.99,,2013-01-11 19:43:00,
2013-01-11 14:53:00,58.0,50.0,-100.00,SW,231,15.0,24.0,78,0.00,,,-99.99,,2013-01-11 19:53:00,
2013-01-11 15:03:00,58.0,50.0,-100.00,SW,227,14.0,24.0,77,0.00,,,-99.99,,2013-01-11 20:03:00,
2013-01-11 15:13:00,58.0,48.0,-100.00,SSW,206,14.0,24.0,73,0.00,,,-99.99,,2013-01-11 20:13:00,
2013-01-11 15:23:00,59.0,50.0,-100.00,SW,235,14.0,24.0,77,0.00,,,-99.99,,2013-01-11 20:23:00,
2013-01-11 15:33:00,58.0,50.0,-100.00,WSW,241,12.0,24.0,76,0.00,,,-99.99,,2013-01-11 20:33:00,
2013-01-11 15:43:00,59.0,50.0,-100.00,SW,232,11.0,24.0,76,0.00,,,-99.99,,2013-01-11 20:43:00,
2013-01-11 15:53:00,58.0,50.0,-100.00,WSW,247,11.0,24.0,76,0.00,,,-99.99,,2013-01-11 20:53:00,
2013-01-11 16:03:00,57.0,50.0,-100.00,SW,232,11.0,24.0,77,0.00,,,-99.99,,2013-01-11 21:03:00,
2013-01-11 16:13:00,58.0,50.0,-100.00,WSW,237,11.0,24.0,77,0.00,,,-99.99,,2013-01-11 21:13:00,
2013-01-11 16:23:00,58.0,50.0,-100.00,SW,224,11.0,24.0,77,0.00,,,-99.99,,2013-01-11 21:23:00,
2013-01-11 16:33:00,58.0,50.0,-100.00,SW,217,12.0,24.0,77,0.00,,,-99.99,,2013-01-11 21:33:00,
2013-01-11 16:43:00,57.0,48.0,-100.00,SSW,196,12.0,24.0,77,0.00,,,-99.99,,2013-01-11 21:43:00,
2013-01-11 16:52:00,57.0,48.0,-100.00,SW,231,12.0,24.0,75,0.00,,,-99.99,,2013-01-11 21:52:00,
2013-01-11 17:03:00,57.0,48.0,-100.00,SW,228,11.0,24.0,77,0.00,,,-99.99,,2013-01-11 22:03:00,
2013-01-11 17:12:00,55.0,46.0,-100.00,SW,232,9.0,24.0,77,0.00,,,-99.99,,2013-01-11 22:12:00,
2013-01-11 17:23:00,54.0,46.0,-100.00,SW,235,8.0,24.0,80,0.00,,,-99.99,,2013-01-11 22:23:00,
2013-01-11 17:33:00,54.0,48.0,-100.00,SW,228,6.0,24.0,81,0.00,,,-99.99,,2013-01-11 22:33:00,
2013-01-11 17:42:00,51.0,45.0,-100.00,SW,214,5.0,24.0,81,0.00,,,-99.99,,2013-01-11 22:42:00,
2013-01-11 17:52:00,53.0,46.0,-100.00,SSW,192,4.0,24.0,82,0.00,,,-99.99,,2013-01-11 22:52:00,
2013-01-11 18:02:00,50.0,46.0,-100.00,South,187,4.0,24.0,88,0.00,,,-99.99,,2013-01-11 23:02:00,
2013-01-11 18:13:00,50.0,46.0,-100.00,South,170,3.0,24.0,90,0.00,,,-99.99,,2013-01-11 23:13:00,
2013-01-11 18:23:00,50.0,46.0,-100.00,South,186,3.0,24.0,89,0.00,,,-99.99,,2013-01-11 23:23:00,
2013-01-11 18:33:00,50.0,46.0,-100.00,SSE,160,3.0,24.0,90,0.00,,,-99.99,,2013-01-11 23:33:00,
2013-01-11 18:43:00,50.0,45.0,-100.00,South,169,2.0,24.0,88,0.00,,,-99.99,,2013-01-11 23:43:00,
2013-01-11 18:53:00,50.0,46.0,-100.00,SSE,165,3.0,24.0,90,0.00,,,-99.99,,2013-01-11 23:53:00,
2013-01-11 19:03:00,51.0,48.0,-100.00,SSE,168,4.0,24.0,90,0.00,,,-99.99,,2013-01-12 00:03:00,
2013-01-11 19:12:00,50.0,46.0,-100.00,South,179,4.0,24.0,89,0.00,,,-99.99,,2013-01-12 00:12:00,
2013-01-11 19:23:00,50.0,46.0,-100.00,SSW,196,5.0,24.0,89,0.00,,,-99.99,,2013-01-12 00:23:00,
2013-01-11 19:33:00,50.0,45.0,-100.00,South,172,6.0,24.0,88,0.00,,,-99.99,,2013-01-12 00:33:00,
2013-01-11 19:43:00,50.0,45.0,-100.00,South,175,6.0,24.0,86,0.00,,,-99.99,,2013-01-12 00:43:00,
2013-01-11 19:52:00,51.0,46.0,-100.00,South,169,6.0,24.0,85,0.00,,,-99.99,,2013-01-12 00:52:00,
2013-01-11 20:03:00,51.0,45.0,-100.00,SSE,160,6.0,24.0,85,0.00,,,-99.99,,2013-01-12 01:03:00,
2013-01-11 20:12:00,51.0,46.0,-100.00,South,179,5.0,24.0,88,0.00,,,-99.99,,2013-01-12 01:12:00,
2013-01-11 20:22:00,51.0,46.0,-100.00,South,189,6.0,24.0,88,0.00,,,-99.99,,2013-01-12 01:22:00,
2013-01-11 20:33:00,51.0,46.0,-100.00,South,170,8.0,24.0,88,0.00,,,-99.99,,2013-01-12 01:33:00,
2013-01-11 20:43:00,51.0,46.0,-100.00,South,179,9.0,24.0,85,0.00,,,-99.99,,2013-01-12 01:43:00,
2013-01-11 20:52:00,50.0,46.0,-100.00,South,190,7.0,24.0,88,0.00,,,-99.99,,2013-01-12 01:52:00,
2013-01-11 21:02:00,50.0,46.0,-100.00,South,190,7.0,24.0,88,0.00,,,-99.99,,2013-01-12 02:02:00,
2013-01-11 21:12:00,50.0,46.0,-100.00,South,184,8.0,24.0,88,0.00,,,-99.99,,2013-01-12 02:12:00,
2013-01-11 21:22:00,50.0,46.0,-100.00,South,173,6.0,24.0,88,0.00,,,-99.99,,2013-01-12 02:22:00,
2013-01-11 21:33:00,51.0,46.0,-100.00,SSE,155,6.0,24.0,86,0.00,,,-99.99,,2013-01-12 02:33:00,
2013-01-11 21:43:00,50.0,46.0,-100.00,SSE,168,4.0,24.0,88,0.00,,,-99.99,,2013-01-12 02:43:00,
2013-01-11 21:53:00,51.0,46.0,-100.00,SSE,156,6.0,24.0,86,0.00,,,-99.99,,2013-01-12 02:53:00,
2013-01-11 22:03:00,50.0,46.0,-100.00,SSE,160,6.0,24.0,88,0.00,,,-99.99,,2013-01-12 03:03:00,
2013-01-11 22:12:00,50.0,45.0,-100.00,SSE,156,7.0,24.0,86,0.00,,,-99.99,,2013-01-12 03:12:00,
2013-01-11 22:22:00,51.0,46.0,-100.00,South,173,8.0,24.0,85,0.00,,,-99.99,,2013-01-12 03:22:00,
2013-01-11 22:33:00,51.0,46.0,-100.00,SSE,166,7.0,24.0,86,0.00,,,-99.99,,2013-01-12 03:33:00,
2013-01-11 22:43:00,50.0,45.0,-100.00,SSE,162,8.0,24.0,86,0.00,,,-99.99,,2013-01-12 03:43:00,
2013-01-11 22:52:00,51.0,46.0,-100.00,SSE,166,7.0,24.0,86,0.00,,,-99.99,,2013-01-12 03:52:00,
2013-01-11 23:02:00,51.0,45.0,-100.00,SSE,166,9.0,24.0,84,0.00,,,-99.99,,2013-01-12 04:02:00,
2013-01-11 23:12:00,53.0,46.0,-100.00,South,182,11.0,24.0,84,0.00,,,-99.99,,2013-01-12 04:12:00,
2013-01-11 23:22:00,53.0,46.0,-100.00,South,180,9.0,24.0,82,0.00,,,-99.99,,2013-01-12 04:22:00,
2013-01-11 23:32:00,52.0,45.0,-100.00,South,170,9.0,24.0,81,0.00,,,-99.99,,2013-01-12 04:32:00,
2013-01-11 23:42:00,52.0,45.0,-100.00,SSE,159,8.0,24.0,82,0.00,,,-99.99,,2013-01-12 04:42:00,
2013-01-11 23:52:00,51.0,45.0,-100.00,SSE,162,8.0,24.0,82,0.00,,,-99.99,,2013-01-12 04:52:00,